When you browse on this site, cookies collect data to enhance your experience and personalize the content and advertising you see.
Visit our Privacy Policy to learn more. By continuing to use the site, you agree to this use of cookies and data.
  • In Lithuania
  • List of Countries
  • For 7 days
  • Water Temperature
  • Satellite Maps
  • Weather Map
  • Weather Widgets
  • user-avatar
    Login

    Hourly Weather Quito

    Today, 17 June, Monday

    Time Temperature Precipitation Wind Pressure Humidity
    00:00 +11°C° 0 mm 0 mps 624 mmHg 49%
    01:00 +11°C° 0 mm 0 mps 624 mmHg 51%
    02:00 +10°C° 0 mm 0 mps 623 mmHg 54%
    03:00 +10°C° 0 mm 0 mps 623 mmHg 56%
    04:00 +10°C° 0 mm 1 mps 623 mmHg 59%
    05:00 +11°C° 0 mm 1 mps 623 mmHg 59%
    06:00 +10°C° 0 mm 0 mps 624 mmHg 59%
    07:00 +12°C° 0 mm 0 mps 625 mmHg 57%
    08:00 +16°C° 0 mm 1 mps 626 mmHg 50%
    09:00 +18°C° 0 mm 2 mps 627 mmHg 43%
    10:00 +21°C° 0 mm 3 mps 627 mmHg 36%
    11:00 +23°C° 0 mm 2 mps 627 mmHg 33%
    12:00 +25°C° 0 mm 2 mps 627 mmHg 30%
    13:00 +26°C° 0 mm 2 mps 627 mmHg 27%
    14:00 +26°C° 0 mm 2 mps 626 mmHg 28%
    15:00 +25°C° 0 mm 2 mps 626 mmHg 28%
    16:00 +25°C° 0 mm 2 mps 625 mmHg 29%
    17:00 +21°C° 0 mm 2 mps 625 mmHg 34%
    18:00 +19°C° 0 mm 2 mps 624 mmHg 40%
    19:00 +16°C° 0 mm 1 mps 624 mmHg 46%
    20:00 +16°C° 0 mm 1 mps 624 mmHg 47%
    21:00 +15°C° 0 mm 1 mps 624 mmHg 48%
    22:00 +15°C° 0 mm 1 mps 624 mmHg 49%
    23:00 +14°C° 0 mm 1 mps 624 mmHg 51%

    Tomorrow, 18 June, Tuesday

    Time Temperature Precipitation Wind Pressure Humidity
    00:00 +13°C° 0 mm 1 mps 624 mmHg 54%
    01:00 +12°C° 0 mm 1 mps 624 mmHg 57%
    02:00 +12°C° 0 mm 1 mps 623 mmHg 59%
    03:00 +11°C° 0 mm 1 mps 623 mmHg 62%
    04:00 +10°C° 0 mm 1 mps 623 mmHg 64%
    05:00 +11°C° 0 mm 1 mps 623 mmHg 63%
    06:00 +11°C° 0 mm 1 mps 624 mmHg 63%
    07:00 +11°C° 0 mm 1 mps 624 mmHg 62%
    08:00 +14°C° 0 mm 2 mps 625 mmHg 53%
    09:00 +18°C° 0 mm 3 mps 626 mmHg 43%
    10:00 +21°C° 0 mm 4 mps 627 mmHg 34%
    11:00 +22°C° 0 mm 3 mps 627 mmHg 31%
    12:00 +24°C° 0 mm 3 mps 626 mmHg 28%
    13:00 +25°C° 0 mm 3 mps 626 mmHg 25%
    14:00 +25°C° 0 mm 2 mps 626 mmHg 25%
    15:00 +25°C° 0 mm 2 mps 625 mmHg 25%
    16:00 +25°C° 0 mm 2 mps 625 mmHg 25%
    17:00 +22°C° 0 mm 1 mps 624 mmHg 31%
    18:00 +19°C° 0 mm 1 mps 624 mmHg 38%
    19:00 +15°C° 0 mm 1 mps 623 mmHg 44%
    20:00 +14°C° 0 mm 1 mps 623 mmHg 46%
    21:00 +14°C° 0 mm 1 mps 624 mmHg 48%
    22:00 +13°C° 0 mm 1 mps 624 mmHg 50%
    23:00 +12°C° 0 mm 1 mps 624 mmHg 54%

    Day after tomorrow, 19 June, Wednesday

    Time Temperature Precipitation Wind Pressure Humidity
    00:00 +12°C° 0 mm 1 mps 623 mmHg 58%
    01:00 +11°C° 0 mm 1 mps 623 mmHg 63%
    02:00 +11°C° 0 mm 1 mps 623 mmHg 64%
    03:00 +10°C° 0 mm 1 mps 623 mmHg 66%
    04:00 +10°C° 0 mm 1 mps 623 mmHg 67%
    05:00 +10°C° 0 mm 1 mps 624 mmHg 66%
    06:00 +11°C° 0 mm 1 mps 624 mmHg 64%
    07:00 +11°C° 0 mm 1 mps 625 mmHg 62%
    08:00 +14°C° 0 mm 2 mps 626 mmHg 52%
    09:00 +17°C° 0 mm 3 mps 626 mmHg 42%
    10:00 +21°C° 0 mm 4 mps 627 mmHg 32%
    11:00 +22°C° 0 mm 3 mps 627 mmHg 30%
    12:00 +24°C° 0 mm 3 mps 627 mmHg 27%
    13:00 +25°C° 0 mm 2 mps 627 mmHg 25%
    14:00 +25°C° 0 mm 2 mps 626 mmHg 25%
    15:00 +25°C° 0 mm 2 mps 626 mmHg 25%
    16:00 +25°C° 0 mm 2 mps 625 mmHg 24%
    17:00 +21°C° 0 mm 2 mps 625 mmHg 30%
    18:00 +19°C° 0 mm 1 mps 624 mmHg 36%
    19:00 +15°C° 0 mm 1 mps 624 mmHg 42%
    20:00 +15°C° 0 mm 1 mps 624 mmHg 43%
    21:00 +14°C° 0 mm 1 mps 624 mmHg 45%
    22:00 +14°C° 0 mm 1 mps 625 mmHg 46%
    23:00 +13°C° 0 mm 1 mps 624 mmHg 49%

    20 June, Thursday

    Time Temperature Precipitation Wind Pressure Humidity
    00:00 +12°C° 0 mm 1 mps 624 mmHg 53%
    01:00 +11°C° 0 mm 1 mps 624 mmHg 57%
    02:00 +11°C° 0 mm 1 mps 624 mmHg 59%
    03:00 +11°C° 0 mm 1 mps 623 mmHg 61%
    04:00 +10°C° 0 mm 1 mps 623 mmHg 64%
    05:00 +10°C° 0 mm 1 mps 624 mmHg 62%
    06:00 +11°C° 0 mm 1 mps 624 mmHg 61%
    07:00 +11°C° 0 mm 1 mps 624 mmHg 60%
    08:00 +14°C° 0 mm 2 mps 625 mmHg 51%
    09:00 +18°C° 0 mm 3 mps 626 mmHg 42%
    10:00 +21°C° 0 mm 4 mps 627 mmHg 33%
    11:00 +22°C° 0 mm 3 mps 627 mmHg 30%
    12:00 +24°C° 0 mm 3 mps 626 mmHg 26%
    13:00 +26°C° 0 mm 2 mps 626 mmHg 23%
    14:00 +25°C° 0 mm 2 mps 626 mmHg 23%
    15:00 +25°C° 0 mm 2 mps 625 mmHg 24%
    16:00 +25°C° 0 mm 2 mps 625 mmHg 24%
    17:00 +21°C° 0 mm 2 mps 625 mmHg 32%
    18:00 +19°C° 0 mm 1 mps 624 mmHg 39%
    19:00 +15°C° 0 mm 1 mps 623 mmHg 46%
    20:00 +15°C° 0 mm 1 mps 624 mmHg 47%
    21:00 +14°C° 0 mm 1 mps 624 mmHg 48%
    22:00 +14°C° 0 mm 1 mps 625 mmHg 49%
    23:00 +13°C° 0 mm 1 mps 624 mmHg 52%

    21 June, Friday

    Time Temperature Precipitation Wind Pressure Humidity
    00:00 +12°C° 0 mm 1 mps 624 mmHg 54%
    01:00 +11°C° 0 mm 1 mps 624 mmHg 56%
    02:00 +11°C° 0 mm 1 mps 623 mmHg 59%
    03:00 +11°C° 0 mm 1 mps 623 mmHg 62%
    04:00 +10°C° 0 mm 1 mps 623 mmHg 64%
    05:00 +10°C° 0 mm 1 mps 623 mmHg 64%
    06:00 +11°C° 0 mm 1 mps 624 mmHg 63%
    07:00 +10°C° 0 mm 2 mps 624 mmHg 62%
    08:00 +14°C° 0 mm 2 mps 625 mmHg 52%
    09:00 +17°C° 0 mm 3 mps 626 mmHg 43%
    10:00 +20°C° 0 mm 4 mps 627 mmHg 33%
    11:00 +22°C° 0 mm 3 mps 626 mmHg 30%
    12:00 +24°C° 0 mm 3 mps 626 mmHg 26%
    13:00 +25°C° 0 mm 3 mps 626 mmHg 23%
    14:00 +25°C° 0 mm 2 mps 625 mmHg 22%
    15:00 +25°C° 0 mm 2 mps 625 mmHg 22%
    16:00 +25°C° 0 mm 2 mps 624 mmHg 22%
    17:00 +21°C° 0 mm 2 mps 624 mmHg 28%
    18:00 +19°C° 0 mm 1 mps 623 mmHg 34%
    19:00 +15°C° 0 mm 1 mps 623 mmHg 40%
    20:00 +14°C° 0 mm 1 mps 623 mmHg 42%
    21:00 +14°C° 0 mm 1 mps 623 mmHg 44%
    22:00 +13°C° 0 mm 1 mps 623 mmHg 46%
    23:00 +12°C° 0 mm 1 mps 623 mmHg 48%

    22 June, Saturday

    Time Temperature Precipitation Wind Pressure Humidity
    00:00 +12°C° 0 mm 1 mps 623 mmHg 51%
    01:00 +11°C° 0 mm 1 mps 622 mmHg 53%
    02:00 +10°C° 0 mm 1 mps 622 mmHg 55%
    03:00 +10°C° 0 mm 1 mps 622 mmHg 57%
    04:00 +9°C° 0 mm 1 mps 622 mmHg 59%
    05:00 +10°C° 0 mm 1 mps 622 mmHg 58%
    06:00 +10°C° 0 mm 1 mps 623 mmHg 56%
    07:00 +11°C° 0 mm 1 mps 623 mmHg 55%
    08:00 +14°C° 0 mm 2 mps 624 mmHg 45%
    09:00 +17°C° 0 mm 3 mps 625 mmHg 36%
    10:00 +21°C° 0 mm 3 mps 626 mmHg 27%
    11:00 +22°C° 0 mm 3 mps 626 mmHg 24%
    12:00 +24°C° 0 mm 3 mps 626 mmHg 22%
    13:00 +26°C° 0 mm 2 mps 625 mmHg 19%
    14:00 +26°C° 0 mm 2 mps 625 mmHg 18%
    15:00 +25°C° 0 mm 2 mps 624 mmHg 18%
    16:00 +25°C° 0 mm 2 mps 624 mmHg 18%
    17:00 +22°C° 0 mm 1 mps 623 mmHg 23%
    18:00 +19°C° 0 mm 1 mps 623 mmHg 27%
    19:00 +13°C° 0 mm 0 mps 622 mmHg 32%
    20:00 +14°C° 0 mm 1 mps 623 mmHg 33%
    21:00 +14°C° 0 mm 1 mps 623 mmHg 33%
    22:00 +13°C° 0 mm 1 mps 623 mmHg 33%
    23:00 +13°C° 0 mm 1 mps 623 mmHg 35%
    Show more